This is the latest recevied weather packets stored in our database for station/object SP4FDH-13. If no packets are shown the sender has not sent any weather packets the latest 10 day(s).
| Time | Temp. | Humidity | Pressure | Rain* | Wind** | Luminosity | Snow |
|---|---|---|---|---|---|---|---|
| 1777492083 | 6.11° C | 69% | 1027.9 hPa | - | - | - | - |
| 1777491508 | 6.11° C | 68% | 1027.8 hPa | - | - | - | - |
| 1777490933 | 6.67° C | 68% | 1027.7 hPa | - | - | - | - |
| 1777490357 | 6.67° C | 68% | 1027.7 hPa | - | - | - | - |
| 1777489782 | 6.67° C | 69% | 1027.5 hPa | - | - | - | - |
| 1777489208 | 7.22° C | 69% | 1027.4 hPa | - | - | - | - |
| 1777488632 | 7.78° C | 65% | 1027.3 hPa | - | - | - | - |
| 1777488057 | 7.78° C | 62% | 1027.1 hPa | - | - | - | - |
| 1777487482 | 8.33° C | 61% | 1027 hPa | - | - | - | - |
| 1777486907 | 8.33° C | 61% | 1027 hPa | - | - | - | - |
| 1777486332 | 8.89° C | 58% | 1027 hPa | - | - | - | - |
| 1777485757 | 9.44° C | 56% | 1026.8 hPa | - | - | - | - |
| 1777485182 | 10° C | 53% | 1026.7 hPa | - | - | - | - |
| 1777484607 | 10° C | 53% | 1026.6 hPa | - | - | - | - |
| 1777484032 | 10° C | 51% | 1026.5 hPa | - | - | - | - |
| 1777483456 | 10.56° C | 51% | 1026.5 hPa | - | - | - | - |
| 1777482881 | 10.56° C | 49% | 1026.3 hPa | - | - | - | - |
| 1777482306 | 10.56° C | 49% | 1026.3 hPa | - | - | - | - |
| 1777481730 | 10.56° C | 48% | 1026.2 hPa | - | - | - | - |
| 1777481155 | 10.56° C | 50% | 1026.1 hPa | - | - | - | - |
| 1777480580 | 10.56° C | 50% | 1026.3 hPa | - | - | - | - |
| 1777480004 | 10.56° C | 50% | 1026.3 hPa | - | - | - | - |
| 1777479429 | 10.56° C | 49% | 1026.1 hPa | - | - | - | - |
| 1777478854 | 10.56° C | 49% | 1026.2 hPa | - | - | - | - |
| 1777478280 | 11.11° C | 47% | 1026.2 hPa | - | - | - | - |
* Rain since midnight (hover to see other rain measurements)
** Current wind speed in m/s (hover to see current wind gust speed)